| time (UTC) | temp F | wind direction | speed MPH | gust MPH | rain 1hr in | rain 24hr in | rain mn in | humidity % | barometer mb |
| 20260903165504 | 88 | 149 | 1.0 | 8.0 | 0.00 | 0.00 | 0.00 | 35 | 1014.0 |
| 20260903165003 | 88 | 145 | 3.0 | 8.0 | 0.00 | 0.00 | 0.00 | 35 | 1013.5 |
| 20260903164503 | 88 | 147 | 3.0 | 8.0 | 0.00 | 0.00 | 0.00 | 34 | 1013.2 |
| 20260903164003 | 89 | 147 | 4.0 | 8.0 | 0.00 | 0.00 | 0.00 | 34 | 1013.2 |
| 20260903163504 | 89 | 140 | 4.0 | 8.0 | 0.00 | 0.00 | 0.00 | 33 | 1013.1 |
| 20260903163003 | 89 | 144 | 4.0 | 8.0 | 0.00 | 0.00 | 0.00 | 34 | 1013.1 |
| 20260903162503 | 89 | 154 | 2.0 | 8.0 | 0.00 | 0.00 | 0.00 | 33 | 1013.2 |
| 20260903162004 | 89 | 146 | 2.0 | 10.0 | 0.00 | 0.00 | 0.00 | 33 | 1013.3 |
| 20260903161504 | 89 | 161 | 2.0 | 11.0 | 0.00 | 0.00 | 0.00 | 34 | 1013.2 |
| 20260903161004 | 89 | 157 | 5.0 | 11.0 | 0.00 | 0.00 | 0.00 | 35 | 1013.2 |
| 20260903160503 | 89 | 142 | 2.0 | 9.0 | 0.00 | 0.00 | 0.00 | 33 | 1013.2 |
| 20260903160004 | 90 | 147 | 4.0 | 10.0 | 0.00 | 0.00 | 0.00 | 31 | 1013.2 |
| 20260903155503 | 90 | 151 | 3.0 | 11.0 | 0.00 | 0.00 | 0.00 | 30 | 1013.1 |
| 20260903155004 | 90 | 144 | 4.0 | 11.0 | 0.00 | 0.00 | 0.00 | 30 | 1013.1 |
| 20260903154504 | 91 | 136 | 4.0 | 11.0 | 0.00 | 0.00 | 0.00 | 30 | 1012.9 |
| 20260903154003 | 92 | 152 | 8.0 | 11.0 | 0.00 | 0.00 | 0.00 | 29 | 1012.8 |
| 20260903153503 | 93 | 152 | 4.0 | 11.0 | 0.00 | 0.00 | 0.00 | 29 | 1012.6 |
| 20260903153004 | 94 | 148 | 4.0 | 11.0 | 0.00 | 0.00 | 0.00 | 29 | 1012.5 |
| 20260903152503 | 96 | 143 | 4.0 | 11.0 | 0.00 | 0.00 | 0.00 | 25 | 1012.7 |
| 20260903152003 | 98 | 343 | 1.0 | 6.0 | 0.00 | 0.00 | 0.00 | 21 | 1012.6 |
| 20260903151504 | 98 | 287 | 2.0 | 5.0 | 0.00 | 0.00 | 0.00 | 20 | 1012.4 |
| 20260903151003 | 98 | 267 | 1.0 | 6.0 | 0.00 | 0.00 | 0.00 | 21 | 1012.5 |
| 20260903150504 | 98 | 241 | 3.0 | 6.0 | 0.00 | 0.00 | 0.00 | 20 | 1012.4 |
| 20260903150003 | 99 | 239 | 2.0 | 8.0 | 0.00 | 0.00 | 0.00 | 20 | 1012.3 |
| 20260903145503 | 99 | 288 | 3.0 | 8.0 | 0.00 | 0.00 | 0.00 | 20 | 1012.4 |
| 20260903145004 | 100 | 307 | 2.0 | 6.0 | 0.00 | 0.00 | 0.00 | 20 | 1012.3 |
| 20260903144503 | 100 | 285 | 2.0 | 6.0 | 0.00 | 0.00 | 0.00 | 19 | 1012.3 |
| 20260903144003 | 100 | 0 | 0.0 | 4.0 | 0.00 | 0.00 | 0.00 | 18 | 1012.4 |
| 20260903143503 | 100 | 238 | 1.0 | 4.0 | 0.00 | 0.00 | 0.00 | 19 | 1012.4 |
| 20260903143003 | 100 | 250 | 1.0 | 4.0 | 0.00 | 0.00 | 0.00 | 20 | 1012.5 |
| 20260903142504 | 100 | 233 | 1.0 | 9.0 | 0.00 | 0.00 | 0.00 | 22 | 1012.6 |
| 20260903142003 | 100 | 238 | 2.0 | 9.0 | 0.00 | 0.00 | 0.00 | 23 | 1012.7 |
| 20260903141503 | 101 | 0 | 0.0 | 7.0 | 0.00 | 0.00 | 0.00 | 22 | 1012.6 |
| 20260903141004 | 102 | 246 | 2.0 | 6.0 | 0.00 | 0.00 | 0.00 | 20 | 1012.7 |
| 20260903140503 | 102 | 257 | 4.0 | 7.0 | 0.00 | 0.00 | 0.00 | 16 | 1012.6 |
| 20260903140004 | 101 | 266 | 2.0 | 8.0 | 0.00 | 0.00 | 0.00 | 17 | 1012.8 |
| 20260903135503 | 101 | 255 | 2.0 | 8.0 | 0.00 | 0.00 | 0.00 | 17 | 1012.7 |
| 20260903135003 | 102 | 233 | 3.0 | 8.0 | 0.00 | 0.00 | 0.00 | 16 | 1012.7 |
| 20260903134503 | 102 | 231 | 2.0 | 7.0 | 0.00 | 0.00 | 0.00 | 17 | 1012.8 |
| 20260903134004 | 100 | 261 | 2.0 | 8.0 | 0.00 | 0.00 | 0.00 | 18 | 1012.8 |
| 20260903133504 | 100 | 267 | 2.0 | 8.0 | 0.00 | 0.00 | 0.00 | 18 | 1012.9 |
| 20260903133003 | 100 | 254 | 4.0 | 8.0 | 0.00 | 0.00 | 0.00 | 19 | 1012.9 |
| 20260903132503 | 101 | 245 | 3.0 | 8.0 | 0.00 | 0.00 | 0.00 | 18 | 1013.0 |
| 20260903132004 | 100 | 255 | 4.0 | 8.0 | 0.00 | 0.00 | 0.00 | 18 | 1013.0 |
| 20260903131504 | 101 | 256 | 2.0 | 8.0 | 0.00 | 0.00 | 0.00 | 18 | 1013.1 |
| 20260903131003 | 101 | 285 | 3.0 | 6.0 | 0.00 | 0.00 | 0.00 | 17 | 1013.0 |
| 20260903130504 | 100 | 0 | 0.0 | 6.0 | 0.00 | 0.00 | 0.00 | 18 | 1013.1 |
| 20260903130004 | 100 | 263 | 2.0 | 10.0 | 0.00 | 0.00 | 0.00 | 18 | 1013.2 |
| 20260903125503 | 100 | 269 | 6.0 | 10.0 | 0.00 | 0.00 | 0.00 | 18 | 1013.2 |
| 20260903125003 | 100 | 259 | 2.0 | 10.0 | 0.00 | 0.00 | 0.00 | 19 | 1013.2 |
| 20260903124504 | 99 | 201 | 4.0 | 9.0 | 0.00 | 0.00 | 0.00 | 19 | 1013.2 |
| 20260903124003 | 100 | 233 | 3.0 | 8.0 | 0.00 | 0.00 | 0.00 | 18 | 1013.3 |
| 20260903123503 | 100 | 267 | 4.0 | 8.0 | 0.00 | 0.00 | 0.00 | 19 | 1013.4 |
| 20260903123004 | 99 | 257 | 3.0 | 8.0 | 0.00 | 0.00 | 0.00 | 19 | 1013.4 |
| 20260903122503 | 100 | 238 | 2.0 | 8.0 | 0.00 | 0.00 | 0.00 | 19 | 1013.6 |
| 20260903122003 | 100 | 248 | 3.0 | 8.0 | 0.00 | 0.00 | 0.00 | 19 | 1013.5 |
| 20260903121504 | 100 | 234 | 4.0 | 8.0 | 0.00 | 0.00 | 0.00 | 19 | 1013.4 |
| 20260903121003 | 100 | 225 | 2.0 | 6.0 | 0.00 | 0.00 | 0.00 | 18 | 1013.5 |
| 20260903120503 | 101 | 229 | 4.0 | 6.0 | 0.00 | 0.00 | 0.00 | 16 | 1013.5 |
| 20260903120004 | 101 | 0 | 0.0 | 4.0 | 0.00 | 0.00 | 0.00 | 17 | 1013.7 |
| 20260903115503 | 101 | 271 | 2.0 | 6.0 | 0.00 | 0.00 | 0.00 | 17 | 1013.8 |
| 20260903115004 | 101 | 0 | 0.0 | 6.0 | 0.00 | 0.00 | 0.00 | 17 | 1013.9 |
| 20260903114503 | 101 | 78 | 2.0 | 5.0 | 0.00 | 0.00 | 0.00 | 17 | 1013.9 |
| 20260903114003 | 100 | 0 | 0.0 | 4.0 | 0.00 | 0.00 | 0.00 | 18 | 1014.1 |
| 20260903113503 | 100 | 19 | 1.0 | 4.0 | 0.00 | 0.00 | 0.00 | 18 | 1014.1 |
| 20260903113005 | 99 | 0 | 0.0 | 4.0 | 0.00 | 0.00 | 0.00 | 18 | 1014.2 |
| 20260903112503 | 99 | 87 | 1.0 | 6.0 | 0.00 | 0.00 | 0.00 | 18 | 1014.2 |
| 20260903112003 | 99 | 0 | 0.0 | 6.0 | 0.00 | 0.00 | 0.00 | 19 | 1014.3 |
| 20260903111504 | 99 | 91 | 2.0 | 4.0 | 0.00 | 0.00 | 0.00 | 17 | 1014.2 |
| 20260903111003 | 99 | 0 | 0.0 | 4.0 | 0.00 | 0.00 | 0.00 | 18 | 1014.3 |
| 20260903110503 | 98 | 0 | 0.0 | 4.0 | 0.00 | 0.00 | 0.00 | 18 | 1014.3 |
| 20260903110003 | 97 | 0 | 0.0 | 4.0 | 0.00 | 0.00 | 0.00 | 19 | 1014.4 |
| 20260903105503 | 97 | 118 | 2.0 | 5.0 | 0.00 | 0.00 | 0.00 | 19 | 1014.5 |
| 20260903105003 | 97 | 105 | 2.0 | 5.0 | 0.00 | 0.00 | 0.00 | 19 | 1014.6 |
| 20260903104504 | 97 | 100 | 2.0 | 5.0 | 0.00 | 0.00 | 0.00 | 18 | 1014.7 |
| 20260903104004 | 96 | 0 | 0.0 | 5.0 | 0.00 | 0.00 | 0.00 | 23 | 1014.7 |
| 20260903103503 | 94 | 158 | 2.0 | 8.0 | 0.00 | 0.00 | 0.00 | 24 | 1014.7 |
| 20260903103004 | 95 | 0 | 0.0 | 8.0 | 0.00 | 0.00 | 0.00 | 23 | 1014.8 |
| 20260903102503 | 96 | 121 | 3.0 | 7.0 | 0.00 | 0.00 | 0.00 | 23 | 1014.9 |
| 20260903102004 | 95 | 99 | 1.0 | 6.0 | 0.00 | 0.00 | 0.00 | 24 | 1014.9 |
| 20260903101504 | 95 | 103 | 2.0 | 6.0 | 0.00 | 0.00 | 0.00 | 23 | 1014.9 |
| 20260903101003 | 95 | 87 | 3.0 | 6.0 | 0.00 | 0.00 | 0.00 | 24 | 1015.0 |
| 20260903100503 | 95 | 113 | 1.0 | 5.0 | 0.00 | 0.00 | 0.00 | 26 | 1015.1 |
| 20260903100004 | 94 | 116 | 2.0 | 5.0 | 0.00 | 0.00 | 0.00 | 27 | 1015.2 |
| 20260903095503 | 94 | 106 | 2.0 | 4.0 | 0.00 | 0.00 | 0.00 | 27 | 1015.2 |
| 20260903095003 | 94 | 0 | 0.0 | 4.0 | 0.00 | 0.00 | 0.00 | 30 | 1015.3 |
| 20260903094504 | 93 | 0 | 0.0 | 4.0 | 0.00 | 0.00 | 0.00 | 33 | 1015.4 |
| 20260903094003 | 93 | 48 | 1.0 | 4.0 | 0.00 | 0.00 | 0.00 | 32 | 1015.5 |
| 20260903093504 | 92 | 0 | 0.0 | 3.0 | 0.00 | 0.00 | 0.00 | 34 | 1015.7 |
| 20260903093003 | 92 | 295 | 1.0 | 7.0 | 0.00 | 0.00 | 0.00 | 35 | 1015.7 |
| 20260903092504 | 91 | 202 | 1.0 | 7.0 | 0.00 | 0.00 | 0.00 | 35 | 1015.7 |
| 20260903092003 | 90 | 61 | 1.0 | 6.0 | 0.00 | 0.00 | 0.00 | 36 | 1015.8 |
| 20260903091503 | 90 | 40 | 1.0 | 6.0 | 0.00 | 0.00 | 0.00 | 37 | 1015.8 |
| 20260903091003 | 90 | 23 | 1.0 | 8.0 | 0.00 | 0.00 | 0.00 | 38 | 1015.9 |
| 20260903090504 | 89 | 276 | 2.0 | 8.0 | 0.00 | 0.00 | 0.00 | 38 | 1015.8 |
| 20260903090003 | 89 | 232 | 2.0 | 8.0 | 0.00 | 0.00 | 0.00 | 38 | 1015.8 |
| 20260903085504 | 89 | 244 | 2.0 | 8.0 | 0.00 | 0.00 | 0.00 | 39 | 1015.9 |
| 20260903085003 | 89 | 235 | 2.0 | 8.0 | 0.00 | 0.00 | 0.00 | 40 | 1015.9 |
| 20260903084503 | 88 | 275 | 1.0 | 6.0 | 0.00 | 0.00 | 0.00 | 42 | 1016.0 |
| 20260903084004 | 87 | 337 | 2.0 | 5.0 | 0.00 | 0.00 | 0.00 | 41 | 1016.0 |
| 20260903083504 | 87 | 74 | 2.0 | 7.0 | 0.00 | 0.00 | 0.00 | 42 | 1016.1 |
| 20260903083003 | 87 | 124 | 2.0 | 9.0 | 0.00 | 0.00 | 0.00 | 41 | 1016.0 |
| 20260903082503 | 87 | 143 | 3.0 | 9.0 | 0.00 | 0.00 | 0.00 | 41 | 1015.9 |
| 20260903082003 | 87 | 80 | 2.0 | 9.0 | 0.00 | 0.00 | 0.00 | 41 | 1016.0 |
| 20260903081503 | 87 | 114 | 2.0 | 7.0 | 0.00 | 0.00 | 0.00 | 42 | 1016.0 |
| 20260903081004 | 86 | 262 | 1.0 | 7.0 | 0.00 | 0.00 | 0.00 | 44 | 1016.1 |
| 20260903080503 | 85 | 329 | 2.0 | 8.0 | 0.00 | 0.00 | 0.00 | 44 | 1015.9 |
| 20260903080003 | 85 | 346 | 2.0 | 9.0 | 0.00 | 0.00 | 0.00 | 45 | 1015.9 |
| 20260903075504 | 84 | 8 | 5.0 | 9.0 | 0.00 | 0.00 | 0.00 | 44 | 1016.1 |
| 20260903075004 | 84 | 326 | 2.0 | 9.0 | 0.00 | 0.00 | 0.00 | 45 | 1016.1 |
| 20260903074503 | 84 | 258 | 3.0 | 6.0 | 0.00 | 0.00 | 0.00 | 46 | 1016.1 |
| 20260903074004 | 84 | 316 | 2.0 | 6.0 | 0.00 | 0.00 | 0.00 | 46 | 1016.2 |
| 20260903073504 | 84 | 351 | 2.0 | 7.0 | 0.00 | 0.00 | 0.00 | 46 | 1016.1 |
| 20260903073003 | 83 | 358 | 1.0 | 7.0 | 0.00 | 0.00 | 0.00 | 47 | 1016.1 |
| 20260903072503 | 83 | 311 | 2.0 | 7.0 | 0.00 | 0.00 | 0.00 | 47 | 1016.2 |
| 20260903072003 | 83 | 326 | 1.0 | 6.0 | 0.00 | 0.00 | 0.00 | 48 | 1016.2 |
| 20260903071504 | 83 | 318 | 2.0 | 6.0 | 0.00 | 0.00 | 0.00 | 47 | 1016.0 |
| 20260903071004 | 83 | 204 | 1.0 | 5.0 | 0.00 | 0.00 | 0.00 | 46 | 1016.1 |
| 20260903070503 | 84 | 212 | 2.0 | 4.0 | 0.00 | 0.00 | 0.00 | 47 | 1016.1 |
| 20260903070003 | 83 | 200 | 2.0 | 4.0 | 0.00 | 0.00 | 0.00 | 47 | 1016.1 |
| 20260903065503 | 83 | 184 | 1.0 | 5.0 | 0.00 | 0.00 | 0.00 | 48 | 1016.1 |
| 20260903065003 | 83 | 343 | 2.0 | 5.0 | 0.00 | 0.00 | 0.00 | 48 | 1016.1 |
| 20260903064504 | 82 | 334 | 2.0 | 6.0 | 0.00 | 0.00 | 0.00 | 48 | 1016.0 |
| 20260903064003 | 82 | 358 | 2.0 | 6.0 | 0.00 | 0.00 | 0.00 | 49 | 1015.8 |
| 20260903063504 | 82 | 69 | 2.0 | 4.0 | 0.00 | 0.00 | 0.00 | 50 | 1015.9 |
| 20260903063003 | 82 | 84 | 2.0 | 7.0 | 0.00 | 0.00 | 0.00 | 50 | 1015.9 |
| 20260903062503 | 81 | 89 | 1.0 | 7.0 | 0.00 | 0.00 | 0.00 | 51 | 1016.0 |
| 20260903062004 | 80 | 79 | 2.0 | 7.0 | 0.00 | 0.00 | 0.00 | 54 | 1016.2 |
| 20260903061503 | 80 | 54 | 2.0 | 9.0 | 0.00 | 0.00 | 0.00 | 54 | 1016.2 |
| 20260903061004 | 80 | 47 | 2.0 | 9.0 | 0.00 | 0.00 | 0.00 | 53 | 1016.0 |
| 20260903060503 | 80 | 44 | 3.0 | 7.0 | 0.00 | 0.00 | 0.00 | 53 | 1016.2 |
| 20260903060003 | 79 | 38 | 2.0 | 10.0 | 0.00 | 0.00 | 0.00 | 55 | 1016.2 |
| 20260903055504 | 79 | 36 | 4.0 | 10.0 | 0.00 | 0.00 | 0.00 | 54 | 1016.3 |
| 20260903055004 | 78 | 36 | 2.0 | 11.0 | 0.00 | 0.00 | 0.00 | 56 | 1016.2 |
| 20260903054503 | 78 | 31 | 2.0 | 11.0 | 0.00 | 0.00 | 0.00 | 57 | 1016.2 |
| 20260903054003 | 78 | 28 | 3.0 | 9.0 | 0.00 | 0.00 | 0.00 | 58 | 1016.4 |
| 20260903053503 | 78 | 52 | 4.0 | 10.0 | 0.00 | 0.00 | 0.00 | 58 | 1016.3 |
| 20260903053004 | 77 | 53 | 2.0 | 10.0 | 0.00 | 0.00 | 0.00 | 60 | 1016.4 |
| 20260903052504 | 77 | 35 | 2.0 | 10.0 | 0.00 | 0.00 | 0.00 | 60 | 1016.5 |
| 20260903052004 | 77 | 39 | 2.0 | 9.0 | 0.00 | 0.00 | 0.00 | 61 | 1016.5 |
| 20260903051503 | 76 | 49 | 1.0 | 8.0 | 0.00 | 0.00 | 0.00 | 62 | 1016.7 |
| 20260903051003 | 76 | 51 | 2.0 | 10.0 | 0.00 | 0.00 | 0.00 | 63 | 1016.7 |
| 20260903050505 | 76 | 61 | 2.0 | 10.0 | 0.00 | 0.00 | 0.00 | 63 | 1016.7 |
| 20260903050003 | 76 | 84 | 3.0 | 8.0 | 0.00 | 0.00 | 0.00 | 63 | 1016.8 |
| 20260903045503 | 76 | 11 | 4.0 | 8.0 | 0.00 | 0.00 | 0.00 | 63 | 1016.7 |
| 20260903045003 | 75 | 14 | 1.0 | 7.0 | 0.00 | 0.00 | 0.00 | 64 | 1016.7 |
| 20260903044503 | 75 | 20 | 1.0 | 8.0 | 0.00 | 0.00 | 0.00 | 64 | 1016.6 |
| 20260903044003 | 75 | 86 | 2.0 | 9.0 | 0.00 | 0.00 | 0.00 | 64 | 1016.6 |
| 20260903043504 | 75 | 168 | 2.0 | 9.0 | 0.00 | 0.00 | 0.00 | 65 | 1016.6 |
| 20260903043003 | 74 | 8 | 2.0 | 8.0 | 0.00 | 0.00 | 0.00 | 64 | 1016.6 |
| 20260903042503 | 74 | 29 | 3.0 | 11.0 | 0.00 | 0.00 | 0.00 | 64 | 1016.6 |
| 20260903042003 | 74 | 28 | 4.0 | 11.0 | 0.00 | 0.00 | 0.00 | 64 | 1016.5 |
| 20260903041503 | 74 | 27 | 2.0 | 11.0 | 0.00 | 0.00 | 0.00 | 64 | 1016.4 |
| 20260903041004 | 74 | 31 | 2.0 | 10.0 | 0.00 | 0.00 | 0.00 | 64 | 1016.5 |
| 20260903040503 | 75 | 14 | 2.0 | 11.0 | 0.00 | 0.00 | 0.00 | 63 | 1016.4 |
| 20260903040003 | 75 | 29 | 1.0 | 11.0 | 0.00 | 0.00 | 0.00 | 62 | 1016.4 |
| 20260903035503 | 75 | 56 | 3.0 | 6.0 | 0.00 | 0.00 | 0.00 | 63 | 1016.3 |
| 20260903035004 | 75 | 116 | 1.0 | 5.0 | 0.00 | 0.00 | 0.00 | 63 | 1016.3 |
| 20260903034503 | 75 | 107 | 1.0 | 7.0 | 0.00 | 0.00 | 0.00 | 63 | 1016.3 |
| 20260903034003 | 74 | 75 | 2.0 | 7.0 | 0.00 | 0.00 | 0.00 | 65 | 1016.4 |
| 20260903033503 | 74 | 75 | 1.0 | 5.0 | 0.00 | 0.00 | 0.00 | 64 | 1016.3 |
| 20260903033004 | 74 | 95 | 2.0 | 4.0 | 0.00 | 0.00 | 0.00 | 64 | 1016.4 |
| 20260903032504 | 74 | 77 | 2.0 | 7.0 | 0.00 | 0.00 | 0.00 | 65 | 1016.4 |
| 20260903032003 | 74 | 63 | 2.0 | 7.0 | 0.00 | 0.00 | 0.00 | 65 | 1016.4 |
| 20260903031503 | 74 | 70 | 2.0 | 11.0 | 0.00 | 0.00 | 0.00 | 65 | 1016.4 |
| 20260903031004 | 74 | 55 | 1.0 | 11.0 | 0.00 | 0.00 | 0.00 | 65 | 1016.5 |
| 20260903030503 | 74 | 35 | 4.0 | 11.0 | 0.00 | 0.00 | 0.00 | 65 | 1016.5 |
| 20260903030003 | 74 | 30 | 2.0 | 11.0 | 0.00 | 0.00 | 0.00 | 65 | 1016.5 |
| 20260903025503 | 75 | 49 | 4.0 | 11.0 | 0.00 | 0.00 | 0.00 | 64 | 1016.6 |
| 20260903025004 | 75 | 65 | 5.0 | 11.0 | 0.00 | 0.00 | 0.00 | 64 | 1016.6 |
| 20260903024503 | 75 | 59 | 2.0 | 11.0 | 0.00 | 0.00 | 0.00 | 63 | 1016.5 |
| 20260903024003 | 76 | 29 | 2.0 | 8.0 | 0.00 | 0.00 | 0.00 | 62 | 1016.6 |
| 20260903023503 | 76 | 25 | 2.0 | 8.0 | 0.00 | 0.00 | 0.00 | 61 | 1016.4 |
| 20260903023004 | 76 | 68 | 2.0 | 5.0 | 0.00 | 0.00 | 0.00 | 60 | 1016.5 |
| 20260903022504 | 76 | 87 | 2.0 | 4.0 | 0.00 | 0.00 | 0.00 | 60 | 1016.6 |
| 20260903022004 | 76 | 40 | 1.0 | 4.0 | 0.00 | 0.00 | 0.00 | 59 | 1016.4 |
| 20260903021503 | 76 | 36 | 1.0 | 4.0 | 0.00 | 0.00 | 0.00 | 59 | 1016.4 |
| 20260903021004 | 76 | 48 | 1.0 | 4.0 | 0.00 | 0.00 | 0.00 | 58 | 1016.4 |
| 20260903020503 | 77 | 0 | 0.0 | 5.0 | 0.00 | 0.00 | 0.00 | 58 | 1016.4 |
| 20260903020003 | 77 | 0 | 0.0 | 5.0 | 0.00 | 0.00 | 0.00 | 57 | 1016.3 |
| 20260903015503 | 77 | 39 | 2.0 | 9.0 | 0.00 | 0.00 | 0.00 | 57 | 1016.3 |
| 20260903015004 | 78 | 61 | 1.0 | 9.0 | 0.00 | 0.00 | 0.00 | 56 | 1016.1 |
| 20260903014503 | 78 | 154 | 2.0 | 8.0 | 0.00 | 0.00 | 0.00 | 55 | 1016.0 |
| 20260903014003 | 78 | 199 | 2.0 | 7.0 | 0.00 | 0.00 | 0.00 | 56 | 1015.8 |
| 20260903013504 | 78 | 272 | 2.0 | 6.0 | 0.00 | 0.00 | 0.00 | 56 | 1015.9 |
| 20260903013003 | 78 | 241 | 2.0 | 5.0 | 0.00 | 0.00 | 0.00 | 56 | 1015.8 |
| 20260903012503 | 78 | 199 | 2.0 | 4.0 | 0.00 | 0.00 | 0.00 | 57 | 1015.9 |
| 20260903012003 | 78 | 0 | 0.0 | 6.0 | 0.00 | 0.00 | 0.00 | 56 | 1015.8 |
| 20260903011503 | 78 | 0 | 0.0 | 8.0 | 0.00 | 0.00 | 0.00 | 56 | 1015.9 |
| 20260903011004 | 78 | 169 | 2.0 | 10.0 | 0.00 | 0.00 | 0.00 | 55 | 1016.0 |
| 20260903010503 | 78 | 124 | 2.0 | 17.0 | 0.00 | 0.00 | 0.00 | 54 | 1016.1 |
| 20260903010003 | 78 | 115 | 4.0 | 17.0 | 0.00 | 0.00 | 0.00 | 55 | 1015.9 |
| 20260903005503 | 78 | 114 | 6.0 | 16.0 | 0.00 | 0.00 | 0.00 | 57 | 1016.0 |
| 20260903005004 | 78 | 123 | 6.0 | 11.0 | 0.00 | 0.00 | 0.00 | 57 | 1016.1 |
| 20260903004504 | 78 | 117 | 2.0 | 11.0 | 0.00 | 0.00 | 0.00 | 57 | 1016.2 |
| 20260903004003 | 78 | 230 | 1.0 | 7.0 | 0.00 | 0.00 | 0.00 | 57 | 1016.8 |
| 20260903003503 | 78 | 282 | 3.0 | 7.0 | 0.00 | 0.00 | 0.00 | 57 | 1017.1 |
| 20260903003004 | 78 | 86 | 1.0 | 11.0 | 0.00 | 0.00 | 0.00 | 57 | 1017.0 |
| 20260903002503 | 78 | 76 | 1.0 | 15.0 | 0.00 | 0.00 | 0.00 | 57 | 1016.8 |
| 20260903002003 | 78 | 63 | 4.0 | 15.0 | 0.00 | 0.00 | 0.00 | 58 | 1016.8 |
| 20260903001503 | 77 | 85 | 4.0 | 11.0 | 0.00 | 0.00 | 0.00 | 59 | 1016.7 |
| 20260903001003 | 77 | 102 | 3.0 | 10.0 | 0.00 | 0.00 | 0.00 | 60 | 1016.6 |
| 20260903000504 | 77 | 108 | 3.0 | 10.0 | 0.00 | 0.00 | 0.00 | 61 | 1016.5 |
| 20260903000003 | 77 | 85 | 3.0 | 12.0 | 0.00 | 0.00 | 0.00 | 62 | 1016.7 |
| 20260902235504 | 77 | 81 | 2.0 | 12.0 | 0.00 | 0.00 | 0.00 | 62 | 1016.8 |
| 20260902235003 | 77 | 123 | 4.0 | 11.0 | 0.00 | 0.00 | 0.00 | 62 | 1016.8 |
| 20260902234503 | 77 | 95 | 4.0 | 13.0 | 0.00 | 0.00 | 0.00 | 62 | 1016.9 |
| 20260902234004 | 77 | 87 | 4.0 | 14.0 | 0.00 | 0.00 | 0.00 | 62 | 1016.7 |
| 20260902233503 | 77 | 126 | 4.0 | 14.0 | 0.00 | 0.00 | 0.00 | 62 | 1016.9 |
| 20260902233003 | 77 | 110 | 4.0 | 12.0 | 0.00 | 0.00 | 0.00 | 63 | 1016.8 |
| 20260902232503 | 77 | 64 | 3.0 | 12.0 | 0.00 | 0.00 | 0.00 | 63 | 1016.9 |
| 20260902232004 | 77 | 80 | 3.0 | 12.0 | 0.00 | 0.00 | 0.00 | 64 | 1017.0 |
| 20260902231503 | 76 | 70 | 3.0 | 11.0 | 0.00 | 0.00 | 0.00 | 64 | 1017.1 |
| 20260902231005 | 76 | 352 | 3.0 | 12.0 | 0.00 | 0.00 | 0.00 | 64 | 1017.2 |
| 20260902230503 | 76 | 19 | 4.0 | 17.0 | 0.00 | 0.00 | 0.00 | 64 | 1017.4 |
| 20260902230004 | 76 | 54 | 6.0 | 17.0 | 0.00 | 0.00 | 0.00 | 63 | 1017.3 |
| 20260902225503 | 76 | 73 | 6.0 | 13.0 | 0.00 | 0.00 | 0.00 | 64 | 1017.3 |
| 20260902225003 | 76 | 41 | 4.0 | 18.0 | 0.00 | 0.00 | 0.00 | 65 | 1017.2 |
| 20260902224504 | 76 | 33 | 4.0 | 18.0 | 0.00 | 0.00 | 0.00 | 65 | 1017.3 |
| 20260902224004 | 76 | 47 | 8.0 | 17.0 | 0.00 | 0.00 | 0.00 | 64 | 1017.7 |
| 20260902223503 | 76 | 93 | 8.0 | 17.0 | 0.00 | 0.00 | 0.00 | 64 | 1017.7 |
| 20260902223003 | 76 | 126 | 7.0 | 17.0 | 0.00 | 0.00 | 0.00 | 64 | 1017.8 |
| 20260902222504 | 76 | 74 | 6.0 | 15.0 | 0.00 | 0.00 | 0.00 | 65 | 1017.6 |
| 20260902222004 | 76 | 40 | 4.0 | 15.0 | 0.00 | 0.00 | 0.00 | 65 | 1017.5 |
| 20260902221503 | 77 | 12 | 6.0 | 17.0 | 0.00 | 0.00 | 0.00 | 66 | 1017.5 |
| 20260902221003 | 77 | 4 | 6.0 | 17.0 | 0.00 | 0.00 | 0.00 | 67 | 1017.6 |
| 20260902220504 | 77 | 197 | 4.0 | 17.0 | 0.00 | 0.00 | 0.00 | 69 | 1017.8 |
| 20260902220003 | 77 | 222 | 6.0 | 17.0 | 0.00 | 0.00 | 0.00 | 69 | 1018.2 |
| 20260902215504 | 77 | 174 | 4.0 | 9.0 | 0.00 | 0.00 | 0.00 | 70 | 1018.1 |
| 20260902215003 | 77 | 53 | 1.0 | 9.0 | 0.00 | 0.00 | 0.00 | 70 | 1018.0 |
| 20260902214503 | 77 | 56 | 1.0 | 13.0 | 0.00 | 0.00 | 0.00 | 69 | 1017.7 |
| 20260902214003 | 77 | 44 | 5.0 | 13.0 | 0.00 | 0.00 | 0.00 | 69 | 1017.3 |
| 20260902213503 | 77 | 301 | 2.0 | 11.0 | 0.00 | 0.00 | 0.00 | 70 | 1017.3 |
| 20260902213004 | 77 | 324 | 2.0 | 11.0 | 0.00 | 0.00 | 0.00 | 69 | 1017.3 |
| 20260902212503 | 76 | 275 | 3.0 | 8.0 | 0.00 | 0.00 | 0.00 | 69 | 1017.1 |
| 20260902212003 | 76 | 291 | 3.0 | 8.0 | 0.00 | 0.00 | 0.00 | 68 | 1016.7 |
| 20260902211503 | 76 | 71 | 2.0 | 8.0 | 0.00 | 0.00 | 0.00 | 68 | 1016.5 |
| 20260902211004 | 75 | 131 | 2.0 | 9.0 | 0.00 | 0.00 | 0.00 | 68 | 1016.2 |
| 20260902210503 | 75 | 123 | 4.0 | 9.0 | 0.00 | 0.00 | 0.00 | 69 | 1016.5 |
| 20260902210004 | 76 | 84 | 4.0 | 8.0 | 0.00 | 0.00 | 0.00 | 68 | 1016.6 |
| 20260902205503 | 76 | 66 | 2.0 | 8.0 | 0.00 | 0.00 | 0.00 | 67 | 1016.7 |
| 20260902205003 | 77 | 89 | 2.0 | 8.0 | 0.00 | 0.00 | 0.00 | 66 | 1016.8 |
| 20260902204504 | 77 | 79 | 2.0 | 7.0 | 0.00 | 0.00 | 0.00 | 66 | 1017.0 |
| 20260902204004 | 77 | 18 | 2.0 | 7.0 | 0.00 | 0.00 | 0.00 | 66 | 1016.7 |
| 20260902203503 | 77 | 51 | 2.0 | 8.0 | 0.00 | 0.00 | 0.00 | 64 | 1016.6 |
| 20260902203003 | 77 | 89 | 1.0 | 11.0 | 0.00 | 0.00 | 0.00 | 62 | 1016.5 |
| 20260902202503 | 78 | 140 | 4.0 | 16.0 | 0.00 | 0.00 | 0.00 | 59 | 1016.5 |
| 20260902202004 | 80 | 158 | 6.0 | 16.0 | 0.00 | 0.00 | 0.00 | 55 | 1016.5 |
| 20260902201503 | 82 | 172 | 10.0 | 15.0 | 0.00 | 0.00 | 0.00 | 51 | 1016.6 |
| 20260902201003 | 83 | 237 | 3.0 | 5.0 | 0.00 | 0.00 | 0.00 | 57 | 1016.6 |
| 20260902200503 | 83 | 0 | 0.0 | 4.0 | 0.00 | 0.00 | 0.00 | 58 | 1016.5 |
| 20260902200004 | 83 | 0 | 0.0 | 4.0 | 0.00 | 0.00 | 0.00 | 58 | 1016.2 |
| 20260902195503 | 83 | 0 | 0.0 | 3.0 | 0.00 | 0.00 | 0.00 | 58 | 1016.0 |
| 20260902195003 | 83 | 0 | 0.0 | 4.0 | 0.00 | 0.00 | 0.00 | 59 | 1015.9 |
| 20260902194504 | 83 | 215 | 2.0 | 4.0 | 0.00 | 0.00 | 0.00 | 59 | 1015.9 |
| 20260902194003 | 83 | 0 | 0.0 | 2.0 | 0.00 | 0.00 | 0.00 | 58 | 1016.0 |
| 20260902193503 | 82 | 0 | 0.0 | 2.0 | 0.00 | 0.00 | 0.00 | 57 | 1016.0 |
| 20260902193003 | 83 | 0 | 0.0 | 2.0 | 0.00 | 0.00 | 0.00 | 56 | 1015.9 |
| 20260902192504 | 83 | 0 | 0.0 | 5.0 | 0.00 | 0.00 | 0.00 | 55 | 1015.9 |
| 20260902192004 | 83 | 128 | 1.0 | 5.0 | 0.00 | 0.00 | 0.00 | 53 | 1016.0 |
| 20260902191503 | 84 | 119 | 1.0 | 4.0 | 0.00 | 0.00 | 0.00 | 51 | 1015.8 |
| 20260902191003 | 85 | 18 | 1.0 | 6.0 | 0.00 | 0.00 | 0.00 | 49 | 1015.9 |
| 20260902190503 | 85 | 0 | 0.0 | 8.0 | 0.00 | 0.00 | 0.00 | 47 | 1015.8 |
| 20260902190003 | 86 | 138 | 2.0 | 8.0 | 0.00 | 0.00 | 0.00 | 45 | 1015.6 |
| 20260902185504 | 86 | 101 | 2.0 | 6.0 | 0.00 | 0.00 | 0.00 | 44 | 1015.7 |
| 20260902185003 | 86 | 22 | 1.0 | 4.0 | 0.00 | 0.00 | 0.00 | 45 | 1015.7 |
| 20260902184503 | 86 | 302 | 2.0 | 4.0 | 0.00 | 0.00 | 0.00 | 46 | 1015.6 |
| 20260902184004 | 86 | 0 | 0.0 | 4.0 | 0.00 | 0.00 | 0.00 | 46 | 1015.7 |
| 20260902183503 | 86 | 0 | 0.0 | 3.0 | 0.00 | 0.00 | 0.00 | 47 | 1015.9 |
| 20260902183003 | 86 | 0 | 0.0 | 4.0 | 0.00 | 0.00 | 0.00 | 47 | 1015.9 |
| 20260902182504 | 86 | 0 | 0.0 | 4.0 | 0.00 | 0.00 | 0.00 | 46 | 1015.9 |
| 20260902182004 | 86 | 0 | 0.0 | 6.0 | 0.00 | 0.00 | 0.00 | 45 | 1015.9 |
| 20260902181503 | 86 | 0 | 0.0 | 6.0 | 0.00 | 0.00 | 0.00 | 45 | 1015.7 |
| 20260902181003 | 87 | 129 | 2.0 | 4.0 | 0.00 | 0.00 | 0.00 | 44 | 1015.7 |
| 20260902180503 | 87 | 97 | 2.0 | 3.0 | 0.00 | 0.00 | 0.00 | 45 | 1015.5 |
| 20260902180005 | 87 | 0 | 0.0 | 4.0 | 0.00 | 0.00 | 0.00 | 47 | 1015.5 |
| 20260902175504 | 87 | 0 | 0.0 | 4.0 | 0.00 | 0.00 | 0.00 | 48 | 1015.5 |
| 20260902175004 | 86 | 0 | 0.0 | 4.0 | 0.00 | 0.00 | 0.00 | 49 | 1015.4 |
| 20260902174503 | 86 | 123 | 3.0 | 5.0 | 0.00 | 0.00 | 0.00 | 50 | 1015.2 |
| 20260902174003 | 86 | 0 | 0.0 | 5.0 | 0.00 | 0.00 | 0.00 | 51 | 1015.2 |
| 20260902173503 | 86 | 130 | 1.0 | 5.0 | 0.00 | 0.00 | 0.00 | 51 | 1015.3 |
| 20260902173003 | 87 | 137 | 1.0 | 5.0 | 0.00 | 0.00 | 0.00 | 52 | 1015.2 |
| 20260902172503 | 87 | 122 | 1.0 | 5.0 | 0.00 | 0.00 | 0.00 | 52 | 1015.2 |
| 20260902172003 | 87 | 0 | 0.0 | 5.0 | 0.00 | 0.00 | 0.00 | 52 | 1015.1 |
| 20260902171504 | 87 | 0 | 0.0 | 6.0 | 0.00 | 0.00 | 0.00 | 51 | 1015.1 |
| 20260902171004 | 87 | 130 | 2.0 | 6.0 | 0.00 | 0.00 | 0.00 | 50 | 1014.9 |
| 20260902170503 | 87 | 141 | 1.0 | 6.0 | 0.00 | 0.00 | 0.00 | 49 | 1014.8 |
| 20260902170003 | 87 | 0 | 0.0 | 5.0 | 0.00 | 0.00 | 0.00 | 48 | 1014.7 |